Regional Weather Roundup
Issued by NWS Wakefield, VA

Home | Current Version | Previous Version | Graphics & Text | Print | Product List | Glossary On
Versions: 1 2 3 4 5 6 7 8 9 10 11 12 13 14 15 16 17 18 19 20 21 22 23 24 25 26 27 28 29 30 31 32 33 34 35 36 37 38 39 40 41 42 43 44 45 46 47 48 49 50
000
ASUS41 KAKQ 141810
RWRAKQ

REGIONAL WEATHER ROUNDUP
NATIONAL WEATHER SERVICE WAKEFIELD VA
200 PM EDT SUN SEP 14 2014

Note: "fair" indicates few or no clouds below 12,000 feet with no
significant weather and/or obstructions to visibility. * = Denotes
station may not report precipitation (e.g., rain,snow,etc.),
thunder or fog.

VAZ042-051-052>054-056-141900-
NORTHERN VIRGINIA

CITY           SKY/WX    TMP DP  RH WIND       PRES   REMARKS
WASH NATIONAL  PTSUNNY   71  45  39 NE6       30.28F
DULLES         PTSUNNY   66  46  48 W7        30.28F
FORT BELVOIR   MOSUNNY   68  47  46 VRB1      30.27F
QUANTICO       MOSUNNY   68  48  48 VRB5      30.29F
FREDERICKSBRG* MOSUNNY   71  50  47 CALM      30.27F
STAFFORD*      MOSUNNY   67  49  51 CALM      30.31F
WARRENTON      MOSUNNY   70  54  56 N3        30.28F
CULPEPER*      MOSUNNY  N/A N/A N/A CALM      30.28F
MANASSAS*      NOT AVBL
LEESBURG*      PTSUNNY   68  52  56 W3        30.29F
WINCHESTER     MOSUNNY   64  45  48 S3        30.28F
FRONT ROYAL*   MOCLDY    64  46  52 CALM      30.28S
LURAY*         MOCLDY    68  46  45 CALM      30.27F
$$

VAZ048-049-060>072-079>083-141900-
CENTRAL AND SOUTH CENTRAL VIRGINIA...AND NORTH CENTRAL NORTH CAROLINA

CITY           SKY/WX    TMP DP  RH WIND       PRES   REMARKS
RICHMOND       PTSUNNY   72  51  47 CALM      30.26F
CHESTERFIELD*  MOCLDY    72  46  40 N6        30.28F
PETERSBURG*    MOSUNNY   70  50  48 CALM      30.27F
HANOVER        PTSUNNY   70  52  52 CALM      30.28F
TAPPAHANNOCK*  MOSUNNY   71  47  43 N5        30.27F
CHARLOTTSVILLE CLOUDY    66  48  52 W5        30.28F
ORANGE*        CLOUDY    68  46  45 NE5       30.29F
LOUISA*        CLOUDY    70  50  49 CALM      30.27F
FARMVILLE*     CLOUDY    66  48  52 CALM      30.27F
CREWE*         CLOUDY    69  50  50 CALM      30.28F
FORT PICKETT*  CLOUDY    65  53  65 N5        30.28F
LUNENBURG*     CLOUDY    62  56  81 NW5       30.28F
SOUTH HILL*    PTSUNNY   66  57  72 N6        30.32F
LAWRENCEVILLE* CLOUDY    65  57  73 NW3       30.27S
ROANOKE RAPIDS CLOUDY    70  59  68 N7        30.25F
RALEIGH        CLOUDY    66  59  78 NE6       30.26F
$$

VAZ088>098-141900-
SOUTHEAST VIRGINIA

CITY           SKY/WX    TMP DP  RH WIND       PRES   REMARKS
NORFOLK        MOSUNNY   71  54  54 N8        30.24F
VIRGINIA BEACH PTSUNNY   72  55  55 NE10      30.23F
NORFOLK NAVAL  PTSUNNY   71  56  58 N12       30.26F
WEST POINT*    NOT AVBL
NEWPORT NEWS   MOSUNNY   77  57  50 VRB6      30.25F
LANGLEY AFB    MOSUNNY   70  57  63 E7        30.25F
FORT EUSTIS    MOSUNNY   72  52  50 VRB6      30.23F
WILLIAMSBURG*  MOSUNNY   75  59  57 N3        30.26S
HR EXEC AP*    PTCLDY    72  57  60 NE5       30.26F
FRANKLIN*        N/A     72  55  56 CALM      30.24F
WAKEFIELD      PTSUNNY   72  56  57 CALM      30.25F
$$

VAZ020-022-025-037-045-141900-
WEST CENTRAL AND SOUTHWEST VIRGINIA

CITY           SKY/WX    TMP DP  RH WIND       PRES   REMARKS
STAUNTON*      CLOUDY    63  47  55 CALM      30.31F
HOT SPRINGS VA NOT AVBL
LYNCHBURG      CLOUDY    64  49  57 CALM      30.31F
DANVILLE       PTSUNNY   69  51  52 VRB6      30.29F
SOUTH BOSTON*  NOT AVBL
MARTINSVILLE   CLOUDY    67  54  64 CALM      30.32F
ROANOKE        CLOUDY    63  50  62 CALM      30.31F
BLACKSBURG     CLOUDY    61  57  88 SE5       30.32F
DUBLIN*        CLOUDY    61  55  80 CALM      30.31F
MARION*        CLOUDY    62  55  78 NE8       30.32S
HILLSVILLE*      N/A     59  52  77 S7        30.31F
RICHLANDS*     CLOUDY    67  60  77 CALM      30.27R
WISE*          CLOUDY    63  55  77 N5        30.28S
ABINGDON*      CLOUDY    65  61  87 E6        30.25S
$$

MDZ021>025-VAZ099-100-141900-
SOUTHERN MARYLAND AND THE DELMARVA PENINSULA

CITY           SKY/WX    TMP DP  RH WIND       PRES   REMARKS
PATUXENT RIVER PTSUNNY   67  49  52 NE9       30.27F
BAY BRIDGE APT   N/A     64  46  52 N5        30.28F
LEONARDTOWN    MOSUNNY   64  50  59 N7        30.28F
DOVER          MOSUNNY   67  49  52 VRB3      30.24F
GEORGETOWN     MOSUNNY   69  47  45 VRB7      30.26F
EASTON         PTSUNNY   68  52  56 CALM      30.30F
CAMBRIDGE      MOSUNNY   68  50  52 W6        30.26F
SALISBURY      PTSUNNY   71  48  43 CALM      30.24F
OCEAN CITY     MOSUNNY   70  52  52 N7        30.24F
WALLOPS ISLAND MOSUNNY   72  52  49 VRB3      30.25F
ACCOMACK*      SUNNY     70  50  49 NW9       30.25S
$$

NCZ012>017-030>032-141900-
EASTERN NORTH CAROLINA

CITY           SKY/WX    TMP DP  RH WIND       PRES   REMARKS
ELIZABETH CITY MOSUNNY   73  58  59 N14       30.22F
AHOSKIE*       MOSUNNY   71  58  62 N7        30.24F
EDENTON*       MOSUNNY   75  61  62 N7        30.22F
CURRITUCK*     MOSUNNY  N/A N/A N/A NE10G17   30.23F
KILL DEVIL HLS CLOUDY    72  61  67 N8        30.20F
MANTEO         CLOUDY    72  62  69 NE15G21   30.21F
CAPE HATTERAS  CLOUDY    73  66  78 NE14G25   30.18F
TARBORO*       CLOUDY    74  61  63 N5        30.24F
GOLDSBORO      CLOUDY    73  64  73 CALM      30.21F
WASHINGTON     PTSUNNY   74  63  68 E6        30.22F
GREENVILLE     PTSUNNY   77  59  53 NE6       30.23F
NEW BERN       CLOUDY    76  65  68 NE7       30.22S
WILMINGTON     CLOUDY    75  67  76 N8        30.20S
$$

VAZ048-141900-
ELSEWHERE

CITY           SKY/WX    TMP DP  RH WIND       PRES   REMARKS
HARRISBURG PA  PTSUNNY   65  46  50 W9        30.27F
BALTIMORE      PTSUNNY   67  45  45 W6        30.26F
ANNAPOLIS      MOSUNNY   66  49  54 N7        30.27F
ANDREWS AFB    MOSUNNY   67  47  49 W3        30.27F
WILMINGTON DE  MOSUNNY   66  48  52 CALM      30.27F
PHILADELPHIA   PTSUNNY   65  45  48 CALM      30.25F
WILDWOOD NJ*   MOSUNNY   64  50  59 W3        30.26F
ATLANTIC CITY  PTSUNNY   66  52  60 CALM      30.23F
HENDERSON NC   CLOUDY    65  55  70 N7        30.27F
GREENSBORO     CLOUDY    68  55  63 NE6       30.27F
ROCKY MOUNT    CLOUDY    73  60  63 NE8       30.24F
FAYETTEVILLE   CLOUDY    70  60  70 NE5       30.23F
CHARLOTTE      CLOUDY    69  55  60 E7        30.26F
$$

VAZ100-141900-
MARINE

STATION/POSITION TIME  TEMP    WIND        PRES    WAVE   SWELL
                       AIR SEA DIR/SP/G            HT/PER HT/PER
                 (UTC) (F)     (DEG/KT/KT) (MB)    (FT/S) (FT/S)
44066 TX TWR #4  1800   62 73   20/  8/ 12 1023.0F   4/ 6   3/ 6
CAPE MAY NJ      1800   65 75  280/  1/  6 1023.9F
LEWES DE         1800   62 72  330/ 11/ 13 1024.4S
15NM E FENWICK I 1800   63 72              1024.1F   4/ 6
OCEAN-CITY-INLET 1800   65 71   30/  6/ 11 1023.8F
WACHAPREAGUE VA  1800   67 72   60/  4/  6 1024.2S
THOMAS POINT MD  1800   62 74   70/  8/  8 1026.0F
GOOSES REEF MD   1800   63      30/  6/ 10 1025.8F
COVE POINT MD    1800   63      20/  6/ 11 1025.0F
SOLOMONS ISLAND  1800      76                N/A
BISHOPS HEAD MD  1800   66 71   30/  4/  6 1024.2F
PINEY POINT MD   1800          300/  6/  8   N/A
POTOMAC MD       1800   65      40/ 10/ 12 1024.3S
CAMBRIDGE MD     1800   65 75  290/  7/  9 1024.5S
LEWISETTA VA     1800   65 73   20/  3/  5 1024.6R
RAPPAHANNOCK LGT 1800          350/  8/ 11 1024.9F
STINGRAY PT      1800   65      30/  8/ 12   N/A
YORK RVR RNG VA  1800   67      70/ 11/ 15 1023.9F
YORKTOWN VA      1800   69 78   60/  4/  6 1024.0F
JAMESTOWN VA     1800   69      30/  4/  6   N/A
DOMINION TERM VA 1800   69      60/  7/ 10 1024.5F
KIPTOPEKE VA     1800      80  330/  3/  4   N/A
CHES BAY BRIDGE  1800   67 76   10/  5/  8 1023.8F
CAPE HENRY VA    1800   67      40/  8/ 11 1023.0F
CHESAPEAKE LGHT  1700   67      20/ 13/ 15 1024.8F
WILLOUBY STN VA  1800   67      30/  9/ 11 1023.2S
S CRANEY ISL VA  1800           10/  9/ 12 1024.0F
CAPE HENRY BUOY  1800      76                N/A     4/ 6
1ST LANDING BUOY 1800   68      50/  6/ 10 1023.9F
CAPE CHARLES BUO 1800      75                N/A     4/ 7   3/ 7
OFFSHORE WE BUOY 1800      75                N/A     5/ 7   3/ 7
64NM E OF VA BCH 1800   71 79   10/ 16/ 19 1022.2F   6/ 8   3/ 8
DUCK PIER NC     1800   69 77   10/ 16/ 20 1022.4F
44100 DUCK FRF   1800      75                N/A     6/ 7
44056 DUCK FRF   1800                        N/A     5/ 7
OREGON INLET NC  1800   71 78  360/ 10/ 16 1022.6F
HATTERAS NC      1800   74 80   20/ 17/ 21 1022.4S
DIAMOND SHLS NC  1800   75      10/ 17/ 21 1021.1F   4/ 5   2/ 8
CAPE LOOKOUT NC  1700   76      30/ 17/ 20 1021.7F
$$



USA.gov is the U.S. government's official web portal to all federal, state and local government web resources and services.